Temp
80 84 87 87 79 76 70 72 78 75 75 80 83 78 76 74 72 67 76 81 84 85 85 83 80 79 79 78 78 78 78 78 78 79 79 79 79 79 79 79 80 80 80 80 80 80 80 80 80
84 85 89 84 76 72 71 76 74 77 77 82 80 78 75 70 75 72 77 81 84 84 84 84 80 79 79 78 78 78 78 78 78 78 78 79 79 79 80 80 80 80 80 80 80 80 80 80 80
85 85 87 81 76 72 73 76 77 79 81 80 77 80 75 70 74 77 82 82 84 82 83 83 79 79 78 78 78 78 78 78 79 79 78 79 78 79 79 79 80 80 80 80 80 80 79 79 80
87 89 84 79 73 76 76 78 80 79 80 81 80 73 77 80 78 81 80 83 83 83 85 81 79 78 78 78 78 78 78 78 79 79 78 79 78 79 79 79 79 79 80 80 79 79 79 79 79
88 85 79 75 74 76 80 81 82 76 77 78 79 72 73 78 81 79 80 83 83 84 85 85 78 78 78 78 78 78 78 78 79 79 78 78 78 78 79 79 79 79 80 79 79 79 79 79 80
84 82 77 74 73 78 81 84 82 78 78 76 75 75 73 77 77 78 83 84 85 84 85 84 79 78 78 78 78 78 78 78 78 78 78 78 78 78 78 78 79 79 79 79 79 78 78 78 78
81 81 74 74 74 75 79 85 82 79 78 76 80 72 72 76 80 81 82 83 84 85 84 85 85 81 78 77 77 77 78 78 78 77 78 78 78 78 78 78 78 78 78 78 78 78 78 78 78
84 83 72 74 75 75 81 83 83 82 77 85 85 73 72 76 79 80 82 83 83 81 84 84 84 85 85 84 77 77 78 78 77 78 78 77 78 77 77 76 77 78 78 78 78 78 78 77 77
82 80 76 75 74 77 82 81 83 85 81 82 81 81 82 79 80 79 79 80 81 77 81 83 83 83 84 86 82 78 78 78 78 79 78 78 85 85 85 78 78 78 78 78 78 78 78 78 78
83 78 76 82 82 80 82 84 81 79 79 78 76 79 79 78 79 78 77 78 79 76 76 82 81 83 83 83 84 83 84 85 83 84 82 86 83 83 85 81 78 78 77 77 77 76 76 79 86
78 79 80 83 85 84 82 81 84 80 76 79 77 76 77 78 78 79 80 81 80 80 79 80 80 79 82 84 82 83 83 83 82 81 81 81 83 83 86 87 88 85 77 86 83 85 86 82 87
79 82 82 86 83 83 82 85 80 83 81 85 84 81 80 77 78 79 79 79 80 79 80 80 81 79 79 82 81 82 82 81 83 83 81 81 83 82 82 81 85 84 84 83 81 85 81 82 83
79 83 83 85 84 86 85 83 83 81 83 85 83 80 79 80 80 82 83 82 81 79 79 79 79 78 79 78 81 81 81 81 83 82 81 82 82 81 80 81 80 80 82 83 79 82 83 81 82
83 82 83 82 82 84 83 80 83 81 84 81 80 80 81 80 81 81 81 82 81 82 80 81 80 78 79 78 78 79 80 81 81 81 82 80 82 81 79 83 82 79 79 81 82 77 76 83 83
81 79 79 79 80 79 85 76 79 82 83 80 80 81 81 80 82 81 83 82 83 83 83 79 79 79 77 77 78 80 81 82 82 81 79 80 81 76 77 81 83 81 83 79 79 79 78 82 82
79 78 76 77 80 79 84 77 84 83 82 79 79 79 79 80 82 83 84 83 83 83 81 81 83 80 77 77 78 80 81 81 82 81 82 81 81 76 75 81 83 83 81 81 81 79 79 80 80
75 73 73 73 80 79 81 78 84 83 82 80 79 79 80 81 81 83 84 84 83 82 81 80 80 82 79 78 79 78 77 79 81 82 82 81 81 80 74 77 82 80 82 80 80 79 79 78 78
71 72 72 72 79 79 78 77 79 81 81 82 81 81 81 81 82 84 83 85 84 82 81 81 80 80 78 79 77 80 79 80 81 82 83 81 83 82 80 81 79 80 80 79 79 77 78 78 79
72 72 74 75 79 77 77 79 81 80 80 81 82 82 82 82 86 85 85 85 83 81 79 79 78 77 78 78 78 79 78 80 80 81 80 81 81 82 79 81 79 77 75 77 76 77 75 77 77
72 70 70 74 76 77 77 76 81 79 78 81 81 82 83 84 85 84 83 82 81 80 78 79 78 77 77 80 79 81 81 82 83 83 80 81 81 82 81 79 79 76 78 74 75 74 76 75 75
70 70 69 72 74 75 73 71 72 78 80 81 82 84 85 85 84 85 84 82 83 80 78 79 77 77 77 77 79 78 80 79 79 80 79 81 80 81 80 79 78 76 76 76 73 75 73 74 75
67 75 74 71 70 67 73 65 67 73 73 76 80 80 83 85 86 87 86 83 81 82 81 79 77 76 77 77 78 78 80 78 81 78 81 81 81 81 80 79 78 77 78 75 74 74 74 71 70
71 74 73 72 70 68 68 67 73 70 72 76 78 81 83 86 88 88 87 88 86 85 82 78 77 76 76 76 79 79 78 81 80 80 77 78 77 79 80 79 76 75 77 73 71 70 71 73 70
78 72 68 67 69 62 70 69 71 72 78 83 83 84 84 86 87 89 88 88 86 86 84 79 76 75 76 76 77 77 77 77 78 78 77 74 78 78 77 77 77 76 75 71 70 71 70 68 68
74 69 61 59 60 60 65 64 73 75 79 84 88 87 87 86 86 87 86 86 84 83 82 78 77 75 76 76 77 77 77 77 76 76 75 75 77 76 76 76 71 73 73 73 73 71 68 70 70
70 69 63 52 56 63 64 62 74 79 81 81 79 82 84 85 86 86 86 86 85 83 81 78 76 75 75 76 76 77 77 78 79 78 76 75 78 78 75 70 69 73 72 72 71 69 69 69 67
69 66 71 61 59 61 68 69 77 80 79 81 82 79 78 84 87 87 88 87 87 84 78 76 71 72 73 76 75 75 76 76 78 76 73 73 75 76 75 73 73 73 74 74 73 75 74 71 67
73 74 64 65 54 52 62 63 69 77 80 83 82 81 77 79 85 87 86 84 77 75 69 67 68 69 73 73 74 76 76 77 76 73 73 73 73 73 73 73 71 74 74 74 72 68 68 70 72
70 69 65 65 64 58 56 64 76 76 78 79 83 79 74 75 78 77 78 74 77 78 73 67 66 66 67 71 73 75 74 74 74 74 73 73 73 73 74 73 73 73 72 71 70 70 71 70 70
71 69 67 62 58 62 60 63 77 75 77 77 79 75 73 72 75 76 76 76 75 72 72 67 67 65 65 69 71 71 72 74 73 72 72 74 72 74 74 74 74 74 72 71 71 71 71 70 69
MSLP
1010.60 1010.53 1010.34 1009.81 1009.48 1008.83 1008.44 1008.55 1008.69 1008.84 1009.33 1009.95 1010.27 1010.76 1011.36 1012.29 1012.83 1014.28 1015.21 1015.24 1015.35 1015.71 1016.19 1016.63 1016.98 1017.20 1017.45 1017.62 1017.67 1017.78 1017.80 1017.84 1017.94 1017.95 1017.96 1017.94 1017.97 1017.86 1017.72 1017.59 1017.50 1017.45 1017.45 1017.48 1017.49 1017.53 1017.55 1017.60 1017.59
1010.34 1010.26 1009.81 1009.16 1008.52 1007.93 1008.26 1008.48 1008.54 1009.10 1009.97 1010.36 1010.76 1011.27 1011.79 1012.70 1013.57 1014.44 1014.91 1015.29 1015.43 1015.85 1016.29 1016.61 1017.17 1017.47 1017.59 1017.71 1017.74 1017.72 1017.73 1017.83 1017.93 1017.96 1018.01 1018.02 1018.02 1017.85 1017.74 1017.73 1017.71 1017.77 1017.82 1017.82 1017.81 1017.73 1017.66 1017.71 1017.79
1010.15 1010.00 1009.13 1008.58 1008.29 1007.76 1007.89 1008.31 1008.61 1009.42 1010.02 1010.21 1010.87 1011.62 1012.30 1013.22 1013.94 1014.24 1014.61 1015.15 1015.57 1016.10 1016.55 1016.87 1017.33 1017.51 1017.64 1017.71 1017.82 1017.93 1018.02 1018.09 1018.15 1018.22 1018.31 1018.31 1018.29 1018.20 1018.14 1018.09 1018.05 1018.06 1018.10 1018.09 1018.07 1017.95 1017.91 1017.96 1018.01
1009.94 1009.49 1009.44 1008.46 1007.74 1007.84 1007.98 1008.32 1008.95 1009.44 1010.05 1010.49 1011.04 1011.91 1012.97 1013.64 1013.96 1014.36 1015.07 1015.16 1015.73 1016.21 1016.48 1017.08 1017.38 1017.58 1017.76 1017.90 1017.97 1018.09 1018.17 1018.24 1018.33 1018.47 1018.59 1018.61 1018.60 1018.60 1018.61 1018.57 1018.49 1018.47 1018.36 1018.29 1018.27 1018.17 1018.02 1018.08 1018.16
1010.00 1009.31 1008.45 1008.07 1007.71 1007.84 1008.06 1008.43 1009.07 1009.54 1010.14 1010.73 1011.26 1012.44 1013.32 1014.20 1014.40 1014.96 1015.29 1015.57 1015.84 1016.20 1016.50 1016.96 1017.56 1017.78 1017.98 1018.10 1018.19 1018.20 1018.23 1018.27 1018.31 1018.47 1018.60 1018.67 1018.72 1018.74 1018.71 1018.69 1018.67 1018.70 1018.64 1018.57 1018.39 1018.27 1018.13 1018.05 1018.13
1009.49 1009.27 1008.15 1007.65 1007.55 1007.61 1007.90 1008.32 1008.92 1009.47 1010.17 1011.04 1011.64 1012.47 1013.68 1014.63 1014.93 1015.32 1015.50 1015.73 1015.96 1016.35 1016.67 1017.11 1017.77 1018.00 1018.09 1018.18 1018.30 1018.36 1018.39 1018.43 1018.46 1018.55 1018.71 1018.79 1018.78 1018.76 1018.80 1018.92 1018.91 1018.93 1018.92 1018.79 1018.67 1018.54 1018.41 1018.38 1018.50
1009.02 1008.65 1008.15 1007.86 1007.48 1007.44 1007.64 1008.32 1008.54 1009.18 1009.99 1010.83 1011.65 1012.39 1013.96 1014.53 1015.08 1015.56 1015.89 1016.13 1016.24 1016.56 1016.87 1017.10 1017.47 1017.89 1018.14 1018.32 1018.44 1018.58 1018.63 1018.68 1018.70 1018.78 1018.89 1018.97 1019.03 1019.10 1019.19 1019.22 1019.26 1019.28 1019.19 1019.09 1019.00 1018.84 1018.74 1018.70 1018.71
1009.11 1008.54 1008.17 1007.82 1007.33 1007.27 1007.73 1008.21 1008.75 1008.93 1010.04 1010.93 1011.43 1011.89 1013.16 1014.15 1015.19 1015.80 1016.13 1016.33 1016.54 1016.91 1016.88 1017.16 1017.42 1017.53 1017.76 1018.00 1018.49 1018.66 1018.77 1018.82 1018.87 1019.02 1019.02 1019.10 1019.13 1019.18 1019.28 1019.38 1019.31 1019.41 1019.39 1019.29 1019.21 1019.07 1018.98 1018.96 1018.97
1009.16 1008.28 1007.53 1007.31 1007.26 1007.23 1007.84 1007.95 1009.01 1009.36 1009.94 1010.78 1011.49 1011.79 1012.52 1014.14 1015.07 1015.59 1015.95 1016.22 1016.42 1017.04 1017.10 1017.17 1017.42 1017.65 1017.69 1017.80 1018.21 1018.61 1018.71 1018.77 1018.88 1019.00 1019.09 1019.02 1018.78 1018.82 1018.84 1019.24 1019.39 1019.42 1019.44 1019.44 1019.37 1019.30 1019.27 1019.17 1019.21
1008.35 1007.86 1007.38 1007.26 1007.14 1007.03 1007.58 1007.79 1008.62 1009.27 1009.97 1010.74 1011.73 1012.54 1013.30 1014.28 1014.73 1015.04 1015.41 1015.70 1016.07 1016.57 1017.11 1017.11 1017.37 1017.46 1017.64 1017.85 1017.97 1018.16 1018.18 1018.25 1018.68 1018.76 1019.03 1018.95 1019.03 1018.98 1018.94 1019.16 1019.38 1019.44 1019.56 1019.69 1019.65 1019.55 1019.48 1019.43 1019.10
1008.29 1007.41 1007.34 1006.95 1006.99 1007.07 1007.32 1007.99 1008.55 1009.04 1009.89 1010.41 1011.24 1012.30 1013.17 1013.90 1014.53 1014.76 1015.12 1015.35 1015.64 1016.12 1016.67 1016.97 1017.23 1017.63 1017.61 1017.65 1018.15 1018.17 1018.26 1018.44 1018.56 1018.72 1018.86 1018.96 1019.01 1019.02 1018.93 1018.91 1018.92 1019.13 1019.54 1019.11 1019.32 1019.18 1019.15 1019.32 1019.23
1007.92 1007.45 1007.19 1006.69 1006.97 1006.96 1007.02 1007.53 1008.35 1008.81 1009.54 1009.94 1010.84 1012.10 1012.85 1013.44 1014.01 1014.34 1014.62 1015.11 1015.51 1016.00 1016.37 1016.69 1016.93 1017.45 1017.77 1017.80 1018.01 1018.18 1018.36 1018.46 1018.44 1018.55 1018.85 1018.97 1018.84 1019.04 1019.04 1019.10 1018.95 1019.17 1019.33 1019.22 1019.30 1019.28 1019.52 1019.46 1019.52
1007.65 1007.10 1007.04 1006.86 1007.04 1006.76 1006.93 1007.23 1007.79 1008.79 1009.52 1009.99 1010.88 1012.14 1012.58 1012.98 1013.46 1014.10 1014.37 1014.90 1015.23 1015.64 1016.05 1016.39 1016.61 1017.03 1017.48 1017.88 1017.90 1018.08 1018.18 1018.26 1018.22 1018.49 1018.72 1018.82 1018.90 1018.91 1018.98 1018.96 1019.12 1019.24 1019.39 1019.37 1019.54 1019.43 1019.35 1019.46 1019.56
1007.09 1007.09 1006.89 1006.86 1006.94 1006.89 1006.83 1007.52 1007.87 1008.88 1009.44 1010.39 1011.16 1011.82 1012.38 1012.85 1013.30 1013.85 1014.16 1014.34 1014.78 1015.09 1015.61 1016.06 1016.47 1016.95 1017.22 1017.48 1017.76 1017.90 1018.06 1018.11 1018.16 1018.19 1018.37 1018.63 1018.67 1018.63 1018.86 1018.71 1018.84 1019.17 1019.28 1019.19 1019.23 1019.46 1019.49 1019.22 1019.37
1007.09 1006.94 1007.02 1006.90 1006.84 1006.83 1007.03 1007.53 1007.36 1008.58 1009.24 1010.22 1010.96 1011.59 1012.19 1012.71 1013.14 1013.20 1013.52 1013.88 1014.25 1014.57 1015.20 1015.80 1016.29 1016.64 1016.99 1017.06 1017.42 1017.52 1017.73 1017.90 1017.92 1018.03 1018.31 1018.34 1018.38 1018.51 1018.66 1018.54 1018.57 1018.90 1019.15 1019.33 1019.49 1019.49 1019.72 1019.37 1019.40
1006.87 1006.82 1006.48 1007.01 1007.06 1007.13 1006.83 1006.02 1006.84 1008.14 1008.88 1009.78 1010.62 1011.20 1011.73 1012.29 1012.43 1012.76 1013.17 1013.75 1014.13 1014.37 1014.68 1015.41 1015.73 1016.17 1016.61 1016.75 1017.08 1017.34 1017.67 1017.87 1017.88 1017.94 1017.97 1018.08 1018.24 1018.47 1018.48 1018.25 1018.36 1018.60 1018.86 1018.93 1019.21 1019.57 1019.59 1019.55 1019.61
1006.83 1006.19 1006.36 1006.84 1007.01 1006.85 1006.88 1006.19 1006.72 1007.78 1008.48 1009.12 1010.00 1010.70 1011.21 1011.47 1012.07 1012.32 1012.72 1013.11 1013.42 1013.92 1014.29 1014.77 1015.17 1015.53 1015.98 1016.50 1016.90 1017.07 1017.36 1017.41 1017.42 1017.57 1017.60 1017.78 1017.94 1018.18 1018.53 1018.53 1018.28 1018.59 1018.70 1018.99 1019.13 1019.41 1019.57 1019.62 1019.63
1006.27 1006.22 1006.40 1006.34 1006.69 1006.70 1006.63 1006.58 1007.07 1007.69 1008.26 1008.55 1009.22 1009.86 1010.35 1010.72 1010.70 1011.22 1011.93 1012.30 1012.87 1013.33 1013.82 1014.37 1014.92 1015.32 1015.86 1016.32 1016.72 1016.79 1017.10 1017.11 1017.02 1016.98 1017.03 1017.25 1017.43 1017.76 1018.09 1018.21 1018.40 1018.56 1018.69 1018.76 1018.92 1019.23 1019.57 1019.54 1019.47
1006.80 1006.37 1005.94 1006.31 1006.58 1006.63 1006.46 1006.52 1006.81 1007.61 1008.11 1008.20 1008.41 1008.97 1009.34 1009.57 1009.75 1010.44 1010.93 1011.55 1012.23 1012.94 1013.45 1013.93 1014.43 1014.78 1015.52 1016.01 1016.22 1016.49 1016.45 1016.65 1016.64 1016.61 1016.82 1016.91 1017.00 1017.20 1017.64 1017.78 1018.14 1018.33 1018.47 1018.65 1019.04 1019.14 1019.35 1019.35 1019.57
1007.08 1006.79 1006.59 1006.51 1006.73 1006.72 1006.44 1006.41 1006.49 1007.33 1007.17 1007.24 1007.63 1008.17 1008.32 1008.60 1009.19 1009.65 1010.15 1010.93 1011.44 1011.78 1012.40 1013.37 1013.80 1014.50 1015.13 1015.32 1015.45 1015.77 1016.00 1016.17 1016.27 1016.34 1016.69 1016.82 1016.78 1017.03 1017.25 1017.51 1017.82 1018.10 1018.33 1018.74 1018.78 1019.05 1018.97 1019.11 1019.26
1007.22 1006.90 1006.89 1006.63 1006.79 1006.99 1006.96 1006.59 1006.61 1006.69 1006.83 1007.07 1007.19 1007.40 1007.89 1007.73 1008.14 1008.64 1009.32 1009.94 1010.59 1011.10 1011.77 1012.52 1013.00 1013.75 1014.43 1014.69 1015.29 1015.78 1015.98 1016.17 1016.27 1016.42 1016.65 1016.35 1016.46 1016.54 1017.13 1017.14 1017.33 1017.61 1017.87 1018.09 1018.59 1018.57 1018.76 1018.73 1019.08
1006.88 1006.73 1006.79 1006.92 1006.98 1006.59 1006.95 1006.05 1006.11 1006.02 1006.17 1006.27 1006.27 1006.56 1006.59 1006.84 1007.21 1007.62 1008.32 1009.03 1009.47 1009.97 1010.99 1011.68 1012.27 1013.19 1013.64 1014.33 1014.61 1014.90 1015.05 1015.34 1015.55 1015.92 1016.22 1016.23 1016.30 1016.29 1016.42 1016.88 1016.65 1016.89 1017.04 1017.39 1017.92 1018.36 1018.39 1018.74 1018.76
1006.46 1006.68 1006.85 1006.92 1006.75 1006.68 1006.62 1006.21 1005.40 1005.62 1005.08 1004.77 1004.84 1005.00 1005.32 1005.60 1006.03 1006.49 1007.17 1007.67 1008.24 1009.17 1009.97 1010.88 1011.97 1012.84 1013.35 1013.94 1013.93 1014.27 1014.74 1015.13 1015.53 1015.62 1015.77 1016.01 1016.07 1016.01 1016.09 1016.59 1017.12 1016.46 1016.78 1017.32 1017.64 1017.83 1018.29 1018.61 1018.82
1006.43 1006.81 1007.22 1007.31 1006.78 1006.12 1005.57 1005.32 1004.40 1004.27 1003.61 1003.11 1003.14 1003.53 1003.88 1004.41 1005.05 1005.52 1006.18 1007.00 1007.58 1008.59 1009.75 1010.54 1011.29 1012.13 1012.85 1013.56 1013.66 1013.87 1014.21 1014.79 1015.08 1015.12 1015.27 1015.49 1015.79 1016.03 1016.01 1016.53 1016.83 1016.85 1016.66 1017.27 1017.61 1017.41 1018.06 1018.68 1018.71
1006.33 1006.39 1006.51 1006.51 1006.23 1005.23 1005.48 1005.12 1003.72 1003.16 1002.66 1002.33 1001.94 1002.30 1002.96 1003.60 1004.29 1004.53 1005.18 1005.81 1006.77 1007.82 1009.06 1010.05 1010.95 1011.71 1012.58 1013.35 1013.61 1013.69 1013.92 1014.40 1014.93 1015.21 1015.25 1015.16 1015.66 1015.78 1016.09 1016.34 1016.88 1016.45 1016.52 1016.75 1017.41 1017.19 1017.53 1018.05 1018.21
1005.88 1006.13 1005.69 1005.39 1005.43 1005.14 1005.46 1004.17 1002.82 1002.63 1002.49 1002.23 1002.26 1002.30 1002.54 1002.56 1002.85 1003.29 1003.43 1004.46 1005.62 1006.86 1008.15 1009.26 1010.05 1011.09 1011.79 1012.78 1013.42 1013.57 1013.77 1014.03 1014.45 1014.79 1015.32 1015.64 1015.50 1015.87 1016.13 1016.56 1016.92 1016.16 1016.33 1016.55 1017.17 1016.69 1017.33 1017.77 1018.08
1005.92 1006.04 1006.05 1005.73 1006.27 1005.56 1004.49 1003.90 1002.93 1002.41 1002.08 1002.02 1001.81 1002.15 1002.15 1001.93 1002.03 1002.32 1002.94 1004.16 1005.59 1007.44 1008.97 1010.58 1011.67 1012.05 1011.39 1011.53 1012.88 1013.71 1013.69 1013.69 1013.91 1014.69 1015.43 1015.72 1015.91 1016.25 1016.38 1016.60 1016.73 1016.16 1016.12 1016.32 1016.40 1016.43 1017.05 1017.65 1017.91
1005.84 1006.20 1006.19 1006.00 1005.54 1004.91 1004.12 1003.62 1002.61 1002.25 1001.71 1001.70 1001.82 1002.27 1002.52 1002.57 1002.48 1003.22 1003.94 1005.29 1006.55 1007.77 1009.10 1009.55 1010.20 1012.55 1012.74 1011.38 1012.55 1013.18 1013.32 1013.58 1013.85 1014.52 1015.06 1015.61 1015.92 1016.16 1016.28 1016.53 1016.35 1015.86 1015.95 1016.34 1016.65 1017.19 1017.43 1017.68 1017.59
1006.09 1005.98 1006.47 1006.47 1005.91 1004.84 1004.14 1003.07 1002.80 1002.48 1002.34 1002.18 1002.10 1002.79 1003.30 1003.69 1003.86 1004.44 1005.56 1006.27 1006.70 1007.28 1008.07 1008.53 1008.19 1011.43 1012.03 1011.42 1012.41 1012.24 1013.34 1013.68 1013.81 1014.15 1014.77 1015.34 1015.65 1015.80 1015.99 1016.13 1016.10 1016.12 1016.44 1016.87 1017.02 1017.17 1017.34 1017.54 1017.53
1006.29 1006.07 1006.30 1006.23 1006.13 1005.62 1004.76 1003.21 1002.85 1002.83 1002.87 1003.04 1003.03 1003.45 1004.26 1004.96 1005.10 1005.18 1006.11 1006.82 1007.04 1007.59 1008.59 1009.78 1010.26 1012.37 1013.39 1013.13 1012.18 1012.10 1013.24 1013.92 1013.80 1014.12 1014.90 1015.22 1015.43 1015.76 1015.93 1016.12 1016.45 1016.54 1016.72 1016.95 1017.00 1017.05 1017.16 1017.44 1017.40
Wind_Speed
9 5 3 3 2 0 2 2 2 4 3 2 7 2 3 4 2 3 5 6 16 14 14 13 12 12 12 12 13 13 13 13 12 13 13 13 11 9 10 13 12 14 12 11 10 8 7 6 6
6 3 2 1 1 3 3 1 2 3 7 12 10 6 3 4 4 9 11 13 16 14 12 12 12 12 12 12 12 13 13 12 12 12 12 12 11 12 12 12 13 14 14 14 13 10 8 6 5
3 2 2 2 2 2 3 2 4 10 4 3 4 6 2 4 7 12 9 17 15 13 12 12 13 13 12 12 12 12 12 12 11 11 11 12 11 12 12 13 13 13 13 13 11 9 7 5 4
0 2 3 1 2 2 0 6 12 8 6 6 9 7 5 1 9 7 16 17 15 14 12 14 13 12 12 12 12 12 11 11 10 10 11 12 12 12 12 12 12 12 12 11 9 7 5 3 2
1 0 2 2 1 1 2 9 11 5 5 8 4 6 7 3 5 14 16 15 14 13 11 12 12 12 12 12 11 11 11 10 10 10 11 12 12 12 12 11 11 11 11 12 10 9 9 7 3
2 1 2 3 2 1 3 11 9 3 7 7 7 10 5 4 9 13 15 14 13 12 10 11 11 11 11 11 11 10 10 9 9 10 11 11 11 11 11 10 10 11 12 12 13 12 12 12 13
1 1 2 2 3 2 5 8 7 6 8 5 13 8 4 7 10 12 13 12 12 11 10 9 10 10 11 10 9 9 8 8 8 8 9 10 10 11 10 9 9 9 10 10 9 10 12 10 12
2 0 4 3 3 3 6 8 6 6 5 12 9 6 8 10 14 13 13 12 11 9 9 9 8 9 9 10 9 8 7 7 6 6 8 9 9 8 9 6 7 7 8 8 6 6 7 9 10
2 2 1 1 3 1 8 8 5 5 12 4 2 5 12 19 16 14 13 13 10 9 9 9 9 9 8 8 9 8 8 7 6 6 6 5 4 4 5 7 6 6 7 6 6 6 4 7 8
3 2 3 2 3 4 12 10 10 6 12 5 8 12 19 18 17 17 16 14 13 13 11 10 10 10 9 7 8 8 8 7 5 4 3 2 2 2 3 2 3 5 6 6 6 7 2 2 3
4 2 1 2 7 7 14 9 7 12 9 6 14 18 19 18 15 15 14 14 15 13 11 12 11 9 9 7 6 5 4 5 5 5 4 3 2 1 0 1 1 3 4 2 2 3 1 4 2
4 5 5 3 5 11 13 9 9 8 3 7 18 19 18 17 17 16 16 15 14 14 13 13 13 11 10 6 6 6 5 5 5 5 5 3 3 1 2 2 2 1 1 2 3 3 3 4 2
6 5 6 6 7 11 12 11 5 10 8 13 19 18 18 18 17 14 12 12 13 14 14 14 14 12 10 9 6 6 6 6 6 5 5 4 2 2 1 3 2 2 2 1 2 2 3 4 4
7 3 4 4 7 9 16 6 5 6 13 15 19 19 17 17 17 14 13 14 14 14 14 14 14 12 11 10 9 7 6 6 6 5 6 6 4 3 2 3 3 2 3 3 3 3 3 3 4
1 3 2 4 8 6 11 4 12 10 14 17 18 17 16 17 16 18 16 16 16 13 13 14 13 13 13 13 10 8 7 7 6 6 7 7 6 4 3 2 3 1 1 4 4 4 3 4 4
4 1 4 2 10 4 15 15 12 11 16 17 17 16 16 17 19 17 16 14 14 13 15 14 13 15 14 12 9 7 6 6 6 5 5 7 6 6 5 4 3 1 3 4 3 3 3 3 4
1 5 3 6 4 7 13 7 9 10 15 17 17 16 16 16 17 16 18 16 17 16 15 16 16 16 16 11 8 8 8 7 7 6 6 7 8 7 4 4 3 3 3 3 4 3 2 3 4
7 6 3 4 10 11 15 8 3 11 16 17 17 16 16 16 19 19 19 18 16 16 16 15 13 14 12 8 7 6 6 7 7 7 7 8 6 8 7 4 3 3 3 3 4 4 4 3 4
2 4 7 4 4 9 16 17 10 11 14 16 17 17 18 18 18 15 16 17 15 14 15 16 15 15 10 9 8 8 8 7 7 7 9 9 8 9 8 5 5 5 3 3 4 3 5 4 4
2 4 2 2 2 9 12 18 20 12 20 22 20 18 19 19 16 15 14 14 16 17 17 15 16 14 12 10 8 7 6 6 5 5 7 8 8 9 8 7 6 6 4 4 5 6 3 3 4
3 5 5 2 3 1 2 7 9 10 16 17 19 19 18 20 18 18 14 15 15 16 16 16 16 14 13 13 8 5 4 2 4 5 5 9 9 9 8 8 7 7 6 4 6 6 6 4 3
5 11 7 7 7 6 6 6 5 7 10 16 20 20 22 22 20 19 18 16 17 18 14 15 14 15 14 14 12 11 9 9 7 6 7 7 9 8 9 9 9 8 5 6 6 5 4 4 5
3 5 6 5 8 4 7 6 4 4 8 15 20 24 25 25 23 22 21 20 19 14 15 14 13 14 13 14 13 11 10 6 3 5 6 5 6 7 7 8 7 8 6 5 5 5 5 4 3
6 5 3 2 4 8 9 10 7 6 7 6 14 21 25 26 25 24 20 17 16 14 13 13 15 15 14 14 14 13 12 8 6 6 5 5 4 5 7 6 8 6 4 5 6 4 3 4 6
4 5 5 7 8 9 2 7 11 8 13 14 14 12 18 22 22 23 22 20 17 17 16 14 14 15 14 13 12 12 11 9 10 8 6 5 3 4 5 5 6 3 4 2 5 3 3 4 6
5 5 7 9 10 9 4 6 5 6 11 10 10 12 12 19 21 24 24 21 19 18 17 16 16 12 14 15 13 11 11 8 8 7 4 4 3 3 4 3 3 3 3 4 4 4 1 2 4
4 6 3 3 2 4 3 4 11 7 13 12 12 8 12 18 21 25 22 18 14 9 7 2 5 2 12 14 11 11 10 9 7 6 6 5 3 2 2 1 3 5 5 5 5 5 2 1 2
5 5 3 1 6 10 6 4 5 10 12 9 12 9 11 11 13 13 10 9 12 16 15 14 13 8 9 9 9 8 8 6 5 6 6 5 6 5 4 4 4 8 8 6 5 3 1 3 2
5 4 1 2 3 7 8 6 4 10 10 13 9 6 9 8 2 9 9 15 17 16 15 14 17 7 17 5 9 9 6 6 6 6 6 6 5 4 6 7 8 8 7 5 4 4 3 3 3
3 2 3 4 3 2 5 8 4 8 11 11 10 5 5 1 6 12 15 16 17 15 13 12 15 10 7 6 7 10 8 7 7 7 7 6 9 9 8 8 6 5 5 5 5 4 3 4 5
Wind_Direction
137 151 185 208 210 236 87 70 342 77 104 65 129 200 122 51 358 47 130 159 144 145 145 147 146 135 124 113 106 100 98 97 93 89 87 87 89 87 81 75 80 75 78 75 80 84 84 102 100
140 176 182 118 149 118 97 145 263 62 105 109 98 108 86 90 79 120 142 154 151 145 145 143 142 131 123 115 109 107 107 103 97 93 91 91 89 79 78 79 78 73 71 70 67 67 74 97 106
115 346 271 54 79 78 84 168 124 113 108 144 109 55 60 77 120 145 132 153 149 144 142 138 139 138 129 121 113 108 104 99 96 91 90 92 92 87 82 79 78 78 74 71 66 62 64 78 100
172 164 125 285 87 130 306 145 136 129 87 67 107 76 91 118 147 157 148 151 145 146 149 133 145 139 131 122 118 114 110 102 94 88 87 89 88 87 81 81 79 74 67 62 57 50 42 47 77
44 227 92 99 275 270 214 153 149 134 101 103 74 111 104 77 114 138 149 151 148 146 149 146 145 139 130 124 122 123 120 116 108 97 92 91 89 88 86 85 81 73 62 58 53 59 56 68 93
108 289 149 170 220 239 166 156 142 140 115 122 114 128 111 105 135 146 150 150 148 146 149 144 144 141 134 130 131 133 128 121 109 99 97 96 98 96 92 88 79 71 65 61 63 63 63 61 69
149 166 111 166 246 245 164 163 157 139 128 117 133 131 103 152 140 144 147 146 149 149 150 150 151 147 140 139 140 138 134 124 112 99 97 99 94 87 85 84 75 71 68 62 58 65 77 75 80
125 156 156 219 238 251 156 156 147 137 103 127 154 166 165 158 145 144 148 149 149 153 161 161 163 158 160 150 147 149 149 137 121 114 98 89 92 86 89 111 85 79 65 61 58 84 90 98 95
173 189 123 205 227 88 160 169 127 98 137 141 138 145 128 141 146 146 155 160 160 169 180 173 174 171 164 157 153 166 162 155 162 149 115 124 94 82 109 82 102 90 71 60 76 70 115 104 101
191 219 175 213 236 218 181 187 144 134 153 136 97 104 130 146 158 162 170 175 178 179 185 184 184 182 172 174 170 170 173 173 173 165 153 144 103 68 4 40 87 90 93 69 47 38 56 201 116
165 188 195 211 232 201 171 178 158 136 182 193 161 152 153 158 171 176 180 185 185 183 186 193 188 191 188 182 180 186 183 175 185 192 194 177 209 167 289 256 218 128 115 154 75 46 101 154 156
189 239 236 310 154 171 177 157 155 156 118 189 162 163 162 170 178 187 185 187 186 191 192 188 193 193 197 187 193 191 192 190 194 196 203 216 225 207 240 239 265 263 108 77 66 54 89 151 158
211 218 213 254 192 203 162 191 171 172 95 139 148 165 178 183 189 194 191 190 187 193 194 197 194 194 193 196 196 199 204 200 196 191 201 223 232 274 265 217 251 234 225 181 123 124 145 165 183
183 221 289 299 228 209 188 170 197 113 132 144 159 177 185 195 193 191 201 199 196 194 198 199 200 199 194 198 201 202 208 207 205 201 210 213 226 248 215 226 215 236 233 184 175 174 174 187 208
175 213 156 33 158 175 173 189 221 139 151 160 178 184 191 204 198 206 206 208 199 197 194 201 199 201 201 201 202 207 212 209 211 210 214 221 220 224 245 228 250 190 318 189 169 170 182 209 218
194 178 222 113 174 166 195 224 201 158 165 175 190 190 199 205 212 212 211 213 210 206 199 198 199 200 205 204 198 207 212 219 228 220 223 227 225 209 199 229 241 183 196 183 179 174 192 227 238
98 192 174 155 192 169 204 234 212 175 189 185 190 197 205 210 217 220 218 214 210 206 201 200 200 203 205 201 202 210 212 218 225 223 228 234 232 207 187 219 226 185 168 171 176 184 243 222 238
183 169 158 162 190 192 193 232 197 192 196 203 200 200 205 215 221 216 216 218 217 209 207 204 201 208 199 194 201 220 224 230 229 230 226 226 216 200 201 210 210 211 197 187 190 199 199 240 243
122 158 161 159 181 181 212 225 219 200 214 214 212 210 210 219 221 219 217 213 212 212 210 205 200 203 190 191 195 220 224 227 232 229 226 217 208 198 192 198 186 190 196 215 219 218 217 219 221
149 144 212 311 249 218 213 229 236 208 216 216 215 214 216 222 224 219 216 206 206 205 208 202 209 198 197 198 195 209 201 221 232 226 216 220 200 203 203 200 191 180 185 207 201 214 214 234 196
196 212 180 144 48 293 334 259 240 225 235 226 230 227 226 225 221 229 218 208 211 212 203 201 205 193 196 199 189 176 174 174 207 216 217 215 212 204 213 194 193 177 192 206 220 213 204 260 222
216 210 208 156 183 229 205 237 245 234 244 219 222 218 222 227 224 230 226 214 211 215 204 201 195 191 195 190 194 196 204 210 214 215 216 217 216 207 201 210 191 186 201 196 206 210 215 199 244
198 137 193 176 205 203 194 250 223 226 224 224 220 219 221 220 225 220 224 225 219 210 200 194 182 188 190 193 194 195 214 222 206 209 236 207 217 212 205 215 213 191 194 216 203 176 203 216 256
130 126 81 99 173 228 216 230 217 225 229 247 232 222 220 216 221 225 221 225 224 213 200 192 185 191 189 197 196 200 213 216 212 211 221 220 206 207 198 211 228 227 180 213 223 174 188 237 230
206 180 203 213 214 247 121 213 256 234 237 239 261 246 227 221 218 218 213 212 212 203 193 192 191 188 190 203 205 205 215 214 226 226 220 211 207 202 182 191 235 193 199 179 241 182 191 242 256
184 215 238 228 227 238 142 220 232 258 275 251 257 275 264 222 216 214 209 206 205 197 190 189 189 179 180 196 205 203 214 213 215 223 203 211 191 173 143 174 215 123 115 125 183 110 128 251 261
136 222 341 153 89 252 244 248 275 272 260 259 268 269 252 234 221 221 217 206 206 185 143 122 9 176 180 184 190 200 203 204 199 186 167 179 166 142 122 217 205 127 109 109 96 80 75 257 263
245 126 201 211 236 249 216 246 254 279 272 270 273 305 314 286 242 223 209 165 116 124 111 101 85 322 242 162 179 186 187 187 171 171 152 147 136 144 152 154 115 85 76 74 72 74 80 274 295
159 189 154 282 258 268 271 258 229 273 292 287 282 309 321 329 144 138 131 132 139 131 129 122 139 186 323 141 152 138 141 142 132 128 127 131 141 146 123 100 91 94 93 92 97 77 45 352 337
315 315 204 260 227 264 300 265 219 267 283 285 290 304 17 32 152 143 145 145 130 126 125 109 114 104 208 281 126 110 117 135 123 117 128 133 115 110 111 107 104 100 94 76 69 58 25 316 311